Gustavus, AK

12:18 PM AKDT on September 26, 2017 (GMT -0800)
Gustavus

Weather History for PAGS - October, 2012

Change the Weather History Date:

Thursday, October 18, 2012

  Actual Average Record
Temperature  
Mean Temperature 37 °F -  
Max Temperature 44 °F 48 °F 58 °F (1979)
Min Temperature 30 °F 36 °F 23 °F (1959)
Degree Days  
Heating Degree Days 28    
Moisture  
Dew Point 32 °F    
Average Humidity 75    
Maximum Humidity 87    
Minimum Humidity 61    
Precipitation  
Precipitation 0.00 in - - ()
Sea Level Pressure  
Sea Level Pressure 29.74 in    
Wind  
Wind Speed 7 mph (SE)    
Max Wind Speed 17 mph    
Max Gust Speed 25 mph    
Visibility 10 miles    
Events      
Averages and records for this station are not official NWS values.
T = Trace of Precipitation, MM = Missing Value Source: NWS Daily Summary

Daily Weather History Graph

Daily Weather History Graph

Search for Another Location

Airport or City:

Trip Planner

Search our weather history database for the weather conditions in past years. The results will help you decide how hot, cold, wet, or windy it might be!

Date:

Astronomy

Oct. 18, 2012 Rise Set
Actual Time 7:47 AM AKDT 5:47 PM AKDT
Civil Twilight 7:06 AM AKDT 6:27 PM AKDT
Nautical Twilight 6:20 AM AKDT 7:13 PM AKDT
Astronomical Twilight 5:34 AM AKDT 7:59 PM AKDT
Moon 12:29 PM AKDT (10/18) 7:36 PM AKDT (10/18)
Length of Visible Light 11h 21m
Length of Day
10h 00m
Waxing Crescent, 15% of the Moon is Illuminated
Oct 18
Waxing Crescent
Oct 21
First Quarter
Oct 29
Full
Nov 6
Last Quarter
Nov 13
New

Hourly Weather History & Observations

Time (AKDT) Temp. Windchill Dew Point Humidity Pressure Visibility Wind Dir Wind Speed Gust Speed Precip Events Conditions
12:16 AM 35.6 °F - 30.2 °F 81% 29.67 in 10.0 mi Calm Calm - N/A   Overcast
12:36 AM 35.6 °F 31.7 °F 30.2 °F 81% 29.67 in 10.0 mi East 4.6 mph - N/A   Overcast
12:56 AM 37.4 °F 34.9 °F 30.2 °F 75% 29.68 in 10.0 mi East 3.5 mph - N/A   Mostly Cloudy
1:16 AM 37.4 °F 32.1 °F 32.0 °F 81% 29.68 in 10.0 mi SSE 6.9 mph - N/A   Mostly Cloudy
1:36 AM 37.4 °F 31.4 °F 30.2 °F 75% 29.69 in 10.0 mi SE 8.1 mph - N/A   Mostly Cloudy
1:56 AM 37.4 °F 30.8 °F 32.0 °F 81% 29.70 in 10.0 mi SE 9.2 mph - N/A   Mostly Cloudy
2:16 AM 39.2 °F 32.5 °F 32.0 °F 75% 29.70 in 10.0 mi ESE 10.4 mph - N/A   Overcast
2:36 AM 39.2 °F 32.0 °F 32.0 °F 75% 29.71 in 10.0 mi SE 11.5 mph - N/A   Mostly Cloudy
2:56 AM 37.4 °F 32.1 °F 32.0 °F 81% 29.71 in 10.0 mi SSE 6.9 mph - N/A   Mostly Cloudy
3:16 AM 37.4 °F 32.1 °F 32.0 °F 81% 29.71 in 10.0 mi SE 6.9 mph - N/A   Overcast
3:36 AM 37.4 °F 32.1 °F 32.0 °F 81% 29.71 in 10.0 mi SE 6.9 mph - N/A   Scattered Clouds
3:56 AM 39.2 °F 32.5 °F 32.0 °F 75% 29.71 in 10.0 mi SE 10.4 mph - N/A   Mostly Cloudy
4:16 AM 39.2 °F 34.2 °F 33.8 °F 81% 29.72 in 10.0 mi SSE 6.9 mph - N/A   Overcast
4:36 AM 39.2 °F 33.0 °F 32.0 °F 75% 29.72 in 10.0 mi SSE 9.2 mph - N/A   Overcast
4:56 AM 39.2 °F 34.2 °F 32.0 °F 75% 29.72 in 10.0 mi SE 6.9 mph - N/A   Overcast
5:16 AM 39.2 °F 33.6 °F 32.0 °F 75% 29.72 in 10.0 mi SSE 8.1 mph - N/A   Overcast
5:36 AM 39.2 °F 35.0 °F 32.0 °F 75% 29.72 in 10.0 mi SSE 5.8 mph - N/A   Overcast
5:56 AM 39.2 °F 33.6 °F 32.0 °F 75% 29.73 in 10.0 mi SSE 8.1 mph - N/A   Overcast
6:16 AM 39.2 °F 33.0 °F 32.0 °F 75% 29.74 in 10.0 mi SSE 9.2 mph - N/A   Overcast
6:36 AM 39.2 °F 32.5 °F 32.0 °F 75% 29.74 in 10.0 mi SE 10.4 mph - N/A   Overcast
6:56 AM 39.2 °F 31.6 °F 32.0 °F 75% 29.74 in 10.0 mi SE 12.7 mph - N/A   Overcast
7:16 AM 39.2 °F 32.5 °F 32.0 °F 75% 29.74 in 10.0 mi SE 10.4 mph - N/A   Overcast
7:36 AM 39.2 °F 32.5 °F 32.0 °F 75% 29.75 in 10.0 mi SE 10.4 mph - N/A   Mostly Cloudy
7:56 AM 39.2 °F 33.6 °F 32.0 °F 75% 29.75 in 10.0 mi SE 8.1 mph - N/A   Overcast
8:16 AM 39.2 °F 32.0 °F 32.0 °F 75% 29.75 in 10.0 mi SE 11.5 mph - N/A   Overcast
8:36 AM 39.2 °F 32.5 °F 33.8 °F 81% 29.76 in 10.0 mi SE 10.4 mph - N/A   Overcast
8:56 AM 39.2 °F 31.2 °F 32.0 °F 75% 29.76 in 10.0 mi SE 13.8 mph - N/A   Mostly Cloudy
9:16 AM 39.2 °F 33.6 °F 32.0 °F 75% 29.76 in 10.0 mi SSE 8.1 mph - N/A   Overcast
9:36 AM 39.2 °F 33.0 °F 33.8 °F 81% 29.77 in 9.0 mi SSE 9.2 mph - N/A   Overcast
9:56 AM 41.0 °F 32.5 °F 33.8 °F 76% 29.76 in 10.0 mi SE 17.3 mph - N/A   Overcast
10:16 AM 41.0 °F 33.5 °F 33.8 °F 76% 29.77 in 10.0 mi SE 13.8 mph 21.9 mph N/A   Overcast
10:36 AM 42.8 °F 34.8 °F 33.8 °F 70% 29.77 in 10.0 mi SE 17.3 mph 24.2 mph N/A   Overcast
10:56 AM 42.8 °F 34.8 °F 33.8 °F 70% 29.77 in 10.0 mi SE 17.3 mph 25.3 mph N/A   Overcast
11:16 AM 42.8 °F 35.8 °F 33.8 °F 70% 29.77 in 10.0 mi SE 13.8 mph 21.9 mph N/A   Overcast
11:36 AM 42.8 °F 35.8 °F 33.8 °F 70% 29.78 in 10.0 mi SE 13.8 mph - N/A   Overcast
11:56 AM 42.8 °F 35.8 °F 33.8 °F 70% 29.78 in 10.0 mi SSE 13.8 mph 20.7 mph N/A   Overcast
12:16 PM 42.8 °F 37.5 °F 32.0 °F 66% 29.78 in 10.0 mi SSE 9.2 mph 19.6 mph N/A   Overcast
12:36 PM 42.8 °F 36.2 °F 33.8 °F 70% 29.79 in 10.0 mi SSE 12.7 mph - N/A   Overcast
12:56 PM 42.8 °F 37.0 °F 32.0 °F 66% 29.79 in 10.0 mi South 10.4 mph - N/A   Overcast
1:16 PM 42.8 °F 39.3 °F 33.8 °F 70% 29.79 in 10.0 mi SSE 5.8 mph - N/A   Overcast
1:36 PM 42.8 °F 41.1 °F 33.8 °F 70% 29.79 in 10.0 mi South 3.5 mph - N/A   Overcast
1:56 PM 42.8 °F 38.6 °F 33.8 °F 70% 29.79 in 10.0 mi South 6.9 mph - N/A   Overcast
2:16 PM 42.8 °F 37.5 °F 33.8 °F 70% 29.79 in 10.0 mi South 9.2 mph - N/A   Overcast
2:36 PM 44.6 °F 40.2 °F 32.0 °F 61% 29.78 in 10.0 mi SSE 8.1 mph - N/A   Overcast
2:56 PM 44.6 °F 39.2 °F 32.0 °F 61% 29.78 in 10.0 mi SSE 10.4 mph - N/A   Overcast
3:16 PM 44.6 °F 38.4 °F 32.0 °F 61% 29.78 in 10.0 mi SSE 12.7 mph - N/A   Mostly Cloudy
3:36 PM 42.8 °F 36.2 °F 33.8 °F 70% 29.78 in 10.0 mi SE 12.7 mph - N/A   Mostly Cloudy
3:56 PM 42.8 °F 37.0 °F 33.8 °F 70% 29.78 in 10.0 mi SE 10.4 mph - N/A   Overcast
4:16 PM 42.8 °F 40.1 °F 33.8 °F 70% 29.77 in 10.0 mi South 4.6 mph - N/A   Overcast
4:36 PM 42.8 °F 41.1 °F 33.8 °F 70% 29.77 in 10.0 mi WSW 3.5 mph - N/A   Overcast
4:56 PM 42.8 °F - 33.8 °F 70% 29.77 in 10.0 mi Calm Calm - N/A   Overcast
5:36 PM 42.8 °F 38.0 °F 33.8 °F 70% 29.76 in 10.0 mi SE 8.1 mph - N/A   Mostly Cloudy
5:56 PM 42.8 °F 39.3 °F 33.8 °F 70% 29.75 in 10.0 mi South 5.8 mph - N/A   Mostly Cloudy
6:16 PM 42.8 °F 41.1 °F 32.0 °F 66% 29.75 in 10.0 mi South 3.5 mph - N/A   Overcast
6:36 PM 41.0 °F - 33.8 °F 76% 29.75 in 10.0 mi Calm Calm - N/A   Overcast
6:56 PM 39.2 °F - 33.8 °F 81% 29.74 in 10.0 mi Calm Calm - N/A   Overcast
7:16 PM 39.2 °F - 33.8 °F 81% 29.74 in 10.0 mi Calm Calm - N/A   Overcast
7:36 PM 39.2 °F - 32.0 °F 75% 29.74 in 10.0 mi Calm Calm - N/A   Mostly Cloudy
7:56 PM 37.4 °F - 32.0 °F 81% 29.74 in 10.0 mi Calm Calm - N/A   Overcast
8:16 PM 35.6 °F 32.8 °F 30.2 °F 81% 29.74 in 10.0 mi North 3.5 mph - N/A   Scattered Clouds
8:36 PM 35.6 °F 32.8 °F 30.2 °F 81% 29.74 in 10.0 mi North 3.5 mph - N/A   Clear
8:56 PM 33.8 °F 30.8 °F 28.4 °F 81% 29.74 in 10.0 mi North 3.5 mph - N/A   Clear
9:16 PM 33.8 °F 29.6 °F 28.4 °F 81% 29.74 in 10.0 mi NNW 4.6 mph - N/A   Partly Cloudy
9:36 PM 33.8 °F - 28.4 °F 81% 29.74 in 10.0 mi Calm Calm - N/A   Mostly Cloudy
9:56 PM 33.8 °F - 28.4 °F 81% 29.74 in 10.0 mi Calm Calm - N/A   Mostly Cloudy
10:16 PM 32.0 °F 27.5 °F 28.4 °F 87% 29.73 in 10.0 mi NNW 4.6 mph - N/A   Scattered Clouds
10:36 PM 32.0 °F 28.7 °F 28.4 °F 87% 29.73 in 10.0 mi NNW 3.5 mph - N/A   Partly Cloudy
10:56 PM 32.0 °F 26.4 °F 26.6 °F 80% 29.73 in 10.0 mi NNW 5.8 mph - N/A   Clear
11:16 PM 30.2 °F 26.7 °F 26.6 °F 86% 29.73 in 10.0 mi North 3.5 mph - N/A   Clear
11:36 PM 32.0 °F 25.6 °F 28.4 °F 87% 29.72 in 10.0 mi NNW 6.9 mph - N/A   Mostly Cloudy
11:56 PM 32.0 °F 26.4 °F 28.4 °F 87% 29.72 in 10.0 mi NNW 5.8 mph - N/A   Overcast